| time (UTC) | temp C | wind direction | speed KPH | gust KPH | rain 1hr cm | rain 24hr cm | rain mn cm | humidity % | barometer mb |
| 20260502123108 | 12 | 18 | 8.0 | 16.1 | 0.00 | 7.54 | 0.00 | 90 | 1016.5 |
| 20260502121541 | 12 | 46 | 6.4 | 16.1 | 0.00 | 7.54 | 0.00 | 90 | 1016.3 |
| 20260502114535 | 12 | 11 | 3.2 | 16.1 | 0.00 | 7.54 | 0.00 | 89 | 1016.1 |
| 20260502113041 | 12 | 15 | 3.2 | 12.9 | 0.00 | 7.54 | 0.00 | 88 | 1015.9 |
| 20260502111532 | 12 | 21 | 3.2 | 19.3 | 0.00 | 7.54 | 0.00 | 87 | 1015.7 |
| 20260502110030 | 12 | 38 | 6.4 | 14.5 | 0.00 | 7.54 | 0.00 | 86 | 1015.6 |
| 20260502104529 | 12 | 61 | 9.7 | 19.3 | 0.00 | 7.54 | 0.00 | 87 | 1015.4 |
| 20260502103025 | 12 | 25 | 3.2 | 11.3 | 0.00 | 7.54 | 0.00 | 87 | 1015.0 |
| 20260502101522 | 12 | 67 | 4.8 | 14.5 | 0.00 | 7.54 | 0.00 | 87 | 1014.7 |
| 20260502091514 | 12 | 47 | 6.4 | 24.1 | 0.00 | 7.54 | 0.00 | 88 | 1013.8 |
| 20260502071501 | 13 | 13 | 9.7 | 19.3 | 0.00 | 7.54 | 0.00 | 90 | 1013.7 |
| 20260502070113 | 13 | 13 | 8.0 | 22.5 | 0.00 | 7.54 | 0.00 | 91 | 1013.6 |
| 20260502064559 | 13 | 67 | 4.8 | 22.5 | 0.00 | 7.54 | 0.00 | 91 | 1013.4 |
| 20260502063100 | 13 | 344 | 9.7 | 19.3 | 0.00 | 7.54 | 0.00 | 92 | 1013.4 |
| 20260502061556 | 13 | 45 | 11.3 | 25.7 | 0.00 | 7.54 | 0.00 | 92 | 1013.4 |
| 20260502060055 | 13 | 34 | 11.3 | 29.0 | 0.00 | 7.54 | 0.00 | 92 | 1013.3 |
| 20260502054553 | 13 | 28 | 12.9 | 32.2 | 0.00 | 8.10 | 0.00 | 93 | 1013.5 |
| 20260502053055 | 13 | 55 | 8.0 | 22.5 | 0.00 | 8.10 | 0.00 | 93 | 1013.9 |
| 20260502051558 | 13 | 35 | 4.8 | 17.7 | 0.00 | 8.10 | 0.00 | 94 | 1013.6 |
| 20260502050049 | 13 | 56 | 4.8 | 20.9 | 0.00 | 8.10 | 0.00 | 94 | 1013.8 |
| 20260502044545 | 13 | 21 | 9.7 | 24.1 | 0.03 | 8.15 | 8.10 | 94 | 1013.6 |
| 20260502043045 | 13 | 21 | 9.7 | 29.0 | 0.03 | 8.15 | 8.10 | 94 | 1013.7 |
| 20260502041538 | 13 | 6 | 9.7 | 32.2 | 0.03 | 8.15 | 8.10 | 94 | 1013.5 |
| 20260502040035 | 13 | 340 | 8.0 | 24.1 | 0.05 | 8.15 | 8.10 | 94 | 1013.3 |
| 20260502034533 | 13 | 38 | 9.7 | 22.5 | 0.08 | 8.13 | 8.08 | 94 | 1012.7 |
| 20260502033029 | 13 | 315 | 9.7 | 22.5 | 0.13 | 8.13 | 8.08 | 94 | 1012.4 |
| 20260502031526 | 14 | 352 | 8.0 | 24.1 | 0.15 | 8.13 | 8.08 | 95 | 1012.0 |
| 20260502030025 | 14 | 44 | 6.4 | 22.5 | 0.13 | 8.10 | 8.05 | 95 | 1011.2 |
| 20260502024527 | 14 | 19 | 6.4 | 20.9 | 0.10 | 8.05 | 8.00 | 94 | 1011.8 |
| 20260502023020 | 15 | 348 | 8.0 | 17.7 | 0.10 | 8.00 | 7.95 | 95 | 1011.7 |
| 20260502021518 | 15 | 354 | 4.8 | 16.1 | 0.15 | 7.98 | 7.92 | 95 | 1011.5 |
| 20260502020017 | 15 | 25 | 8.0 | 19.3 | 0.15 | 7.98 | 7.92 | 95 | 1011.4 |
| 20260502014514 | 15 | 323 | 6.4 | 19.3 | 0.28 | 8.03 | 7.90 | 95 | 1011.0 |
| 20260502013015 | 15 | 333 | 4.8 | 16.1 | 0.48 | 7.98 | 7.85 | 95 | 1010.6 |
| 20260502011512 | 15 | 43 | 6.4 | 17.7 | 0.58 | 7.90 | 7.77 | 95 | 1010.1 |
| 20260502010020 | 15 | 52 | 6.4 | 25.7 | 0.69 | 7.90 | 7.77 | 95 | 1008.9 |
| 20260502004513 | 15 | 73 | 11.3 | 24.1 | 0.56 | 7.90 | 7.59 | 94 | 1009.0 |
| 20260502003007 | 15 | 9 | 6.4 | 22.5 | 0.36 | 7.67 | 7.37 | 95 | 1009.5 |
| 20260502001508 | 15 | 40 | 8.0 | 25.7 | 0.18 | 7.47 | 7.16 | 95 | 1008.6 |
| 20260502000008 | 15 | 33 | 4.8 | 19.3 | 0.10 | 7.39 | 7.09 | 95 | 1008.8 |
| 20260501234504 | 15 | 48 | 9.7 | 24.1 | 0.05 | 7.34 | 7.04 | 94 | 1008.7 |
| 20260501233002 | 16 | 132 | 8.0 | 27.4 | 0.05 | 7.32 | 7.01 | 95 | 1007.9 |
| 20260501231503 | 16 | 25 | 9.7 | 27.4 | 0.03 | 7.29 | 6.99 | 95 | 1007.9 |
| 20260501230105 | 16 | 63 | 9.7 | 33.8 | 0.03 | 7.29 | 6.99 | 95 | 1007.9 |
| 20260501230002 | 16 | 50 | 9.7 | 33.8 | 0.03 | 7.29 | 6.99 | 95 | 1007.9 |
| 20260501224603 | 16 | 38 | 11.3 | 33.8 | 0.03 | 7.29 | 6.99 | 95 | 1008.5 |
| 20260501223059 | 16 | 70 | 14.5 | 33.8 | 0.08 | 7.26 | 6.96 | 95 | 1008.4 |
| 20260501221600 | 16 | 65 | 11.3 | 24.1 | 0.28 | 7.26 | 6.96 | 95 | 1008.7 |
| 20260501214555 | 16 | 74 | 8.0 | 20.9 | 0.51 | 7.26 | 6.96 | 95 | 1008.7 |
| 20260501213058 | 16 | 82 | 17.7 | 37.0 | 0.66 | 7.19 | 6.88 | 95 | 1007.0 |
| 20260501211551 | 16 | 63 | 11.3 | 25.7 | 0.86 | 6.99 | 6.68 | 95 | 1008.4 |
| 20260501210048 | 17 | 40 | 8.0 | 22.5 | 1.22 | 6.86 | 6.55 | 95 | 1008.2 |
| 20260501204547 | 17 | 75 | 9.7 | 25.7 | 2.18 | 6.76 | 6.45 | 95 | 1007.7 |
| 20260501203053 | 17 | 2 | 9.7 | 40.2 | 2.36 | 6.53 | 6.22 | 95 | 1007.2 |
| 20260501201555 | 17 | 42 | 6.4 | 25.7 | 2.01 | 6.12 | 5.82 | 95 | 1007.5 |
| 20260501200047 | 17 | 88 | 14.5 | 27.4 | 1.55 | 5.64 | 5.33 | 95 | 1006.7 |
| 20260501194546 | 17 | 113 | 4.8 | 14.5 | 0.46 | 4.55 | 4.24 | 94 | 1007.1 |
| 20260501193044 | 17 | 69 | 12.9 | 35.4 | 0.08 | 4.17 | 3.86 | 94 | 1006.3 |
| 20260501191551 | 17 | 59 | 12.9 | 27.4 | 0.03 | 4.11 | 3.81 | 94 | 1007.0 |
| 20260501190050 | 17 | 18 | 6.4 | 17.7 | 0.00 | 4.09 | 3.78 | 95 | 1007.7 |
| 20260501184543 | 17 | 57 | 11.3 | 22.5 | 0.00 | 4.09 | 3.78 | 95 | 1007.7 |
| 20260501183040 | 17 | 68 | 8.0 | 27.4 | 0.00 | 4.09 | 3.78 | 95 | 1007.0 |
| 20260501181606 | 17 | 87 | 8.0 | 27.4 | 0.03 | 4.09 | 3.78 | 95 | 1007.7 |
| 20260501180044 | 17 | 69 | 12.9 | 33.8 | 0.84 | 4.09 | 3.78 | 95 | 1007.7 |
| 20260501174539 | 17 | 67 | 9.7 | 24.1 | 2.72 | 4.09 | 3.78 | 95 | 1008.2 |
| 20260501173100 | 17 | 20 | 9.7 | 25.7 | 2.72 | 4.09 | 3.78 | 94 | 1008.8 |
| 20260501171538 | 17 | 80 | 9.7 | 29.0 | 2.72 | 4.06 | 3.76 | 94 | 1008.5 |
| 20260501170036 | 17 | 56 | 9.7 | 33.8 | 1.85 | 3.20 | 2.87 | 93 | 1009.0 |
| 20260501164543 | 17 | 275 | 12.9 | 30.6 | 0.10 | 1.37 | 1.07 | 94 | 1009.3 |
| 20260501163030 | 17 | 77 | 9.7 | 27.4 | 0.10 | 1.37 | 1.07 | 94 | 1007.9 |
| 20260501161527 | 17 | 56 | 12.9 | 24.1 | 0.08 | 1.35 | 1.04 | 94 | 1008.7 |
| 20260501160027 | 17 | 27 | 9.7 | 29.0 | 0.08 | 1.35 | 1.04 | 93 | 1009.2 |
| 20260501154525 | 17 | 71 | 12.9 | 20.9 | 0.03 | 1.27 | 0.97 | 93 | 1009.0 |
| 20260501153045 | 17 | 65 | 9.7 | 27.4 | 0.15 | 1.27 | 0.97 | 93 | 1008.8 |
| 20260501151523 | 17 | 78 | 9.7 | 22.5 | 0.15 | 1.27 | 0.97 | 93 | 1008.8 |
| 20260501150018 | 18 | 50 | 9.7 | 17.7 | 0.15 | 1.27 | 0.97 | 94 | 1009.2 |
| 20260501144527 | 18 | 58 | 9.7 | 24.1 | 0.13 | 1.24 | 0.94 | 94 | 1009.2 |
| 20260501143020 | 18 | 66 | 11.3 | 27.4 | 0.00 | 1.12 | 0.81 | 93 | 1008.9 |